GUNSMOKE-J 2 (49014 NORAD) Tracking and Keplerian Element Data

This shows tracking and keplerian element data for the satellite.

Feedback or suggestion? Click here.




ElementValue
Catalog49014
NameGUNSMOKE-J 2
Epoch Orbit451
Epoch Day210.83902672
Epoch Year2021
RAAN137.3957
Inclination51.6303
Eccentricity0.0010135
Argument of Perigee2.5405
Mean Anonmoly357.5622
Mean Motion15.23426853
Decay Rate1.019E-05
L11 49014U 21013D 21210.83902672 .00001019 00000-0 56224-4 0 9992
L22 49014 51.6303 137.3957 0010135 2.5405 357.5622 15.23426853 4518

Live tracking and technical data element details for GUNSMOKE-J 2 (NORAD 49014). GUNSMOKE-J 2 can be tracked NOW for your location showing map with azimuth and elevation plus other details from your city location.

Track the satellite on the map from your city or location and see movement details for azimuth, elevation, latitude, longitude, range, height, and movement on the map or in text.







IsCatalogInMostPopularTable: catalog: 49014, numindb: 1
Update: records affected: 1



GetName: 49014 GUNSMOKE-J 2

Hit Count: updated at: Sat, 31 Jul 2021 16:25:28 GMT